STARLINK-2583 (48439 NORAD) Tracking and Keplerian Element Data

This shows tracking and keplerian element data for the satellite.

Feedback or suggestion? Click here.




ElementValue
Catalog48439
NameSTARLINK-2583
Epoch Orbit1477
Epoch Day215.25002315
Epoch Year2021
RAAN161.0404
Inclination53.0536
Eccentricity0.000146
Argument of Perigee56.9798
Mean Anonmoly260.635
Mean Motion15.15459694
Decay Rate-0.01065616
L11 48439U 21040M 21215.25002315 -.01065616 00000-0 -60056-1 0 9999
L22 48439 53.0536 161.0404 0001460 56.9798 260.6350 15.15459694 14773

Live tracking and technical data element details for STARLINK-2583 (NORAD 48439). STARLINK-2583 can be tracked NOW for your location showing map with azimuth and elevation plus other details from your city location.

Track the satellite on the map from your city or location and see movement details for azimuth, elevation, latitude, longitude, range, height, and movement on the map or in text.







IsCatalogInMostPopularTable: catalog: 48439, numindb: 28
Update: records affected: 1



GetName: 48439 STARLINK-2583

Hit Count: updated at: Tue, 03 Aug 2021 19:26:15 GMT